Portada
METAR-TAF:

METAR-TAF

Aeroports :

Wittman Regional Airport

Oshkosh, Wisconsin, Estats Units d'Amèrica

latitud: 43-58-00N, longitud: 088-33-29W, altitud: 246 m

Observació

L'informe es va fer fa 1 hora i 10 minuts, a les 11:53 UTC
Vent 15 kt del Sud/Sud-Oest amb ràfegues de 24 kt
Temperatura 3°C
Humitat 70%
Pressió 1015 hPa
Visibilitat: 16.1 km
Cel clar

METAR: KOSH 161153Z 21015G24KT 10SM CLR 03/M02 A2998 RMK AO2 SLP164 T00281022 10028 20000 58022

Hora: 08:03 (13:03 UTC)


TAF: manca

Observacions i pronòstics meteorològics de més de 4000 aeroports (METAR i TAF).

Les estacions disponibles són els punts grocs i vermells al mapa.

Posi el ratolí al punt desitjat per veure el nom de l'estació.

Feu clic per veure les observacions i els pronòstics meteorològics.

Per canviar el mapa: feu clic els botons verds amb una creu de color negre per apropar; al botó verd amb un guió per allunyar la imatge; o en les fletxes verdes per a mapes adjacents.


METAR-TAF: